Previsão horária em Aliganj

Hoje, 19 Junho, Sábado

Tempo Temperatura Precipitação Vento Pressão Humidade
00:00 +27°C° 1.4 mm 4 m/s 736 mmHg 87%
01:00 +27°C° 1.4 mm 4 m/s 736 mmHg 88%
02:00 +27°C° 1.4 mm 4 m/s 735 mmHg 88%
03:00 +27°C° 1.9 mm 3 m/s 735 mmHg 89%
04:00 +27°C° 1.9 mm 3 m/s 735 mmHg 90%
05:00 +27°C° 0 mm 3 m/s 735 mmHg 87%
06:00 +27°C° 0.4 mm 3 m/s 736 mmHg 87%
07:00 +27°C° 0.4 mm 3 m/s 736 mmHg 87%
08:00 +28°C° 0.4 mm 3 m/s 736 mmHg 87%
09:00 +28°C° 0.9 mm 2 m/s 736 mmHg 87%
10:00 +28°C° 0.9 mm 2 m/s 736 mmHg 87%
11:00 +33°C° 0 mm 3 m/s 736 mmHg 67%
12:00 +33°C° 1.4 mm 3 m/s 736 mmHg 64%
13:00 +34°C° 1.4 mm 3 m/s 735 mmHg 62%
14:00 +34°C° 1.4 mm 3 m/s 735 mmHg 60%
15:00 +34°C° 0.6 mm 3 m/s 734 mmHg 59%
16:00 +34°C° 0.6 mm 3 m/s 734 mmHg 59%
17:00 +35°C° 0.6 mm 4 m/s 734 mmHg 59%
18:00 +34°C° 0.7 mm 4 m/s 734 mmHg 63%
19:00 +33°C° 0.7 mm 4 m/s 735 mmHg 68%
20:00 +32°C° 0.7 mm 4 m/s 735 mmHg 72%
21:00 +30°C° 0.1 mm 5 m/s 736 mmHg 73%
22:00 +30°C° 0.1 mm 5 m/s 736 mmHg 75%
23:00 +30°C° 0.1 mm 5 m/s 736 mmHg 76%

Amanhã, 20 Junho, Domingo

Tempo Temperatura Precipitação Vento Pressão Humidade
00:00 +29°C° 0 mm 5 m/s 736 mmHg 77%
01:00 +29°C° 0 mm 4 m/s 735 mmHg 78%
02:00 +29°C° 0 mm 4 m/s 735 mmHg 79%
03:00 +29°C° 0 mm 4 m/s 735 mmHg 80%
04:00 +28°C° 0 mm 4 m/s 735 mmHg 81%
05:00 +28°C° 0 mm 3 m/s 735 mmHg 83%
06:00 +28°C° 0 mm 4 m/s 736 mmHg 81%
07:00 +29°C° 0 mm 4 m/s 736 mmHg 80%
08:00 +29°C° 0 mm 4 m/s 736 mmHg 78%
09:00 +29°C° 0 mm 4 m/s 736 mmHg 78%
10:00 +29°C° 0 mm 4 m/s 736 mmHg 79%
11:00 +29°C° 0 mm 4 m/s 736 mmHg 79%
12:00 +30°C° 0.1 mm 5 m/s 736 mmHg 76%
13:00 +32°C° 0.1 mm 5 m/s 736 mmHg 73%
14:00 +32°C° 0.1 mm 6 m/s 736 mmHg 70%
15:00 +32°C° 0.2 mm 6 m/s 736 mmHg 70%
16:00 +33°C° 0.2 mm 6 m/s 736 mmHg 70%
17:00 +33°C° 0.2 mm 6 m/s 736 mmHg 70%
18:00 +32°C° 0 mm 6 m/s 736 mmHg 73%
19:00 +30°C° 0 mm 5 m/s 737 mmHg 75%
20:00 +29°C° 0 mm 5 m/s 737 mmHg 78%
21:00 +29°C° 0.5 mm 4 m/s 738 mmHg 80%
22:00 +29°C° 0.5 mm 4 m/s 738 mmHg 81%
23:00 +28°C° 0.5 mm 3 m/s 738 mmHg 83%

Depois de amanhã, 21 Junho, Segunda-feira

Tempo Temperatura Precipitação Vento Pressão Humidade
00:00 +28°C° 0.2 mm 3 m/s 738 mmHg 84%
01:00 +28°C° 0.2 mm 3 m/s 737 mmHg 84%
02:00 +28°C° 0.2 mm 3 m/s 737 mmHg 85%
03:00 +28°C° 0.6 mm 2 m/s 737 mmHg 86%
04:00 +28°C° 0.6 mm 2 m/s 737 mmHg 86%
05:00 +28°C° 0.6 mm 2 m/s 738 mmHg 86%
06:00 +29°C° 0.1 mm 2 m/s 738 mmHg 82%
07:00 +29°C° 0.1 mm 2 m/s 738 mmHg 78%
08:00 +30°C° 0.1 mm 2 m/s 739 mmHg 74%
09:00 +32°C° 0 mm 2 m/s 739 mmHg 68%
10:00 +34°C° 0 mm 3 m/s 739 mmHg 62%
11:00 +35°C° 0 mm 3 m/s 738 mmHg 56%
12:00 +36°C° 0 mm 3 m/s 738 mmHg 52%
13:00 +37°C° 0 mm 3 m/s 737 mmHg 47%
14:00 +39°C° 0 mm 3 m/s 736 mmHg 43%
15:00 +39°C° 0 mm 3 m/s 736 mmHg 43%
16:00 +39°C° 0 mm 3 m/s 736 mmHg 42%
17:00 +39°C° 0 mm 3 m/s 736 mmHg 41%
18:00 +38°C° 0 mm 3 m/s 736 mmHg 45%
19:00 +37°C° 0 mm 3 m/s 737 mmHg 49%
20:00 +36°C° 0 mm 3 m/s 737 mmHg 53%
21:00 +36°C° 0 mm 3 m/s 737 mmHg 55%
22:00 +35°C° 0 mm 3 m/s 737 mmHg 56%
23:00 +35°C° 0 mm 3 m/s 737 mmHg 58%

22 Junho, Terça-feira

Tempo Temperatura Precipitação Vento Pressão Humidade
00:00 +35°C° 0 mm 2 m/s 737 mmHg 59%
01:00 +34°C° 0 mm 2 m/s 737 mmHg 59%
02:00 +34°C° 0 mm 2 m/s 736 mmHg 60%
03:00 +34°C° 0 mm 2 m/s 736 mmHg 59%
04:00 +34°C° 0 mm 2 m/s 737 mmHg 58%
05:00 +34°C° 0 mm 2 m/s 737 mmHg 58%
06:00 +35°C° 0 mm 3 m/s 737 mmHg 51%
07:00 +36°C° 0 mm 4 m/s 738 mmHg 45%
08:00 +38°C° 0 mm 4 m/s 738 mmHg 38%
09:00 +40°C° 0 mm 4 m/s 738 mmHg 36%
10:00 +41°C° 0 mm 4 m/s 738 mmHg 33%
11:00 +42°C° 0 mm 3 m/s 738 mmHg 31%
12:00 +43°C° 0 mm 3 m/s 737 mmHg 29%
13:00 +44°C° 0 mm 3 m/s 736 mmHg 27%
14:00 +45°C° 0 mm 3 m/s 736 mmHg 25%
15:00 +45°C° 0 mm 3 m/s 735 mmHg 25%
16:00 +45°C° 0 mm 3 m/s 735 mmHg 24%
17:00 +45°C° 0 mm 3 m/s 735 mmHg 23%
18:00 +43°C° 0 mm 2 m/s 735 mmHg 25%
19:00 +42°C° 0 mm 2 m/s 735 mmHg 27%
20:00 +41°C° 0 mm 1 m/s 735 mmHg 29%
21:00 +41°C° 0 mm 2 m/s 735 mmHg 31%
22:00 +40°C° 0 mm 3 m/s 735 mmHg 32%
23:00 +40°C° 0 mm 3 m/s 736 mmHg 33%

23 Junho, Quarta-feira

Tempo Temperatura Precipitação Vento Pressão Humidade
00:00 +40°C° 0 mm 4 m/s 735 mmHg 35%
01:00 +40°C° 0 mm 4 m/s 735 mmHg 37%
02:00 +39°C° 0 mm 5 m/s 735 mmHg 39%
03:00 +37°C° 0 mm 5 m/s 735 mmHg 40%
04:00 +37°C° 0 mm 5 m/s 735 mmHg 42%
05:00 +36°C° 0 mm 4 m/s 736 mmHg 43%
06:00 +39°C° 0 mm 5 m/s 736 mmHg 40%
07:00 +40°C° 0 mm 6 m/s 736 mmHg 38%
08:00 +41°C° 0 mm 6 m/s 737 mmHg 35%
09:00 +42°C° 0 mm 6 m/s 737 mmHg 32%
10:00 +45°C° 0 mm 6 m/s 737 mmHg 28%
11:00 +46°C° 0 mm 6 m/s 737 mmHg 25%
12:00 +47°C° 0 mm 6 m/s 736 mmHg 23%
13:00 +47°C° 0 mm 6 m/s 736 mmHg 22%
14:00 +48°C° 0 mm 6 m/s 735 mmHg 20%
15:00 +48°C° 0 mm 6 m/s 735 mmHg 20%
16:00 +48°C° 0 mm 6 m/s 735 mmHg 20%
17:00 +48°C° 0 mm 5 m/s 734 mmHg 19%
18:00 +47°C° 0 mm 4 m/s 734 mmHg 21%
19:00 +45°C° 0 mm 3 m/s 734 mmHg 23%
20:00 +43°C° 0 mm 2 m/s 735 mmHg 25%
21:00 +43°C° 0 mm 3 m/s 735 mmHg 27%
22:00 +42°C° 0 mm 3 m/s 735 mmHg 29%
23:00 +42°C° 0 mm 4 m/s 735 mmHg 32%

24 Junho, Quinta-feira

Tempo Temperatura Precipitação Vento Pressão Humidade
00:00 +40°C° 0 mm 3 m/s 735 mmHg 32%
01:00 +40°C° 0 mm 3 m/s 735 mmHg 33%
02:00 +40°C° 0 mm 3 m/s 734 mmHg 34%
03:00 +40°C° 0 mm 4 m/s 734 mmHg 34%
04:00 +40°C° 0 mm 5 m/s 734 mmHg 35%
05:00 +39°C° 0 mm 5 m/s 735 mmHg 35%
06:00 +40°C° 0 mm 6 m/s 735 mmHg 34%
07:00 +41°C° 0 mm 6 m/s 735 mmHg 33%
08:00 +42°C° 0 mm 6 m/s 735 mmHg 31%
09:00 +44°C° 0 mm 7 m/s 735 mmHg 29%
10:00 +45°C° 0 mm 7 m/s 735 mmHg 26%
11:00 +46°C° 0 mm 7 m/s 735 mmHg 24%
12:00 +46°C° 0 mm 7 m/s 734 mmHg 23%
13:00 +47°C° 0 mm 7 m/s 734 mmHg 23%
14:00 +47°C° 0 mm 7 m/s 733 mmHg 22%
15:00 +47°C° 0 mm 7 m/s 733 mmHg 22%
16:00 +47°C° 0 mm 7 m/s 732 mmHg 22%
17:00 +47°C° 0 mm 6 m/s 732 mmHg 22%
18:00 +46°C° 0 mm 5 m/s 732 mmHg 23%
19:00 +44°C° 0 mm 4 m/s 732 mmHg 25%
20:00 +43°C° 0 mm 3 m/s 732 mmHg 27%
21:00 +43°C° 0 mm 4 m/s 732 mmHg 27%
22:00 +43°C° 0 mm 5 m/s 733 mmHg 28%
23:00 +42°C° 0 mm 6 m/s 733 mmHg 28%
Mostrar mais